GW0206 Weather Reports


time (UTC)temp
C
wind
direction
speed
KPH
gust
KPH
rain 1hr
cm
rain 24hr
cm
rain mn
cm
humidity
%
barometer
mb
20260902102507 21 15 1.6 6.4 0.00 0.00 0.00 97 1017.5
20260902102005 21 13 1.6 6.4 0.00 0.00 0.00 97 1017.5
20260902101511 21 5 1.6 4.8 0.00 0.00 0.00 97 1017.5
20260902101007 21 22 1.6 4.8 0.00 0.00 0.00 97 1017.4
20260902100508 21 17 0.0 3.2 0.00 0.00 0.00 97 1017.5
20260902100011 21 17 0.0 3.2 0.00 0.00 0.00 97 1017.4
20260902095508 21 338 0.0 1.6 0.00 0.00 0.00 97 1017.5
20260902095007 21 338 0.0 4.8 0.00 0.00 0.00 97 1017.6
20260902094516 22 338 0.0 6.4 0.00 0.00 0.00 97 1017.6
20260902094009 22 20 0.0 6.4 0.00 0.00 0.00 97 1017.5
20260902093509 22 13 0.0 4.8 0.00 0.00 0.00 97 1017.6
20260902093017 22 5 1.6 6.4 0.00 0.00 0.00 97 1017.7
20260902092508 22 36 1.6 6.4 0.00 0.00 0.00 97 1017.7
20260902092008 22 30 1.6 6.4 0.00 0.00 0.00 97 1017.7
20260902091523 22 36 1.6 4.8 0.00 0.00 0.00 97 1017.8
20260902091008 22 13 1.6 4.8 0.00 0.00 0.00 97 1017.8
20260902090508 22 20 1.6 4.8 0.00 0.00 0.00 97 1017.7
20260902090020 22 17 1.6 6.4 0.00 0.00 0.00 97 1017.8
20260902085508 22 11 1.6 6.4 0.00 0.00 0.00 97 1017.8
20260902085008 22 329 1.6 6.4 0.00 0.00 0.00 97 1017.8
20260902084518 22 5 3.2 8.0 0.00 0.00 0.00 97 1017.8
20260902084009 22 19 1.6 8.0 0.00 0.00 0.00 97 1017.7
20260902083507 22 19 1.6 8.0 0.00 0.00 0.00 97 1017.6
20260902083030 22 14 3.2 8.0 0.00 0.00 0.00 97 1017.6
20260902082510 22 5 3.2 6.4 0.00 0.00 0.00 97 1017.6
20260902082010 22 32 1.6 6.4 0.00 0.00 0.00 97 1017.7
20260902081524 22 32 3.2 6.4 0.00 0.00 0.00 97 1017.6
20260902081010 22 31 3.2 6.4 0.00 0.00 0.00 97 1017.5
20260902080512 22 355 1.6 6.4 0.00 0.00 0.00 97 1017.5
20260902080030 22 352 1.6 6.4 0.00 0.00 0.00 97 1017.6
20260902075509 22 5 0.0 4.8 0.00 0.00 0.00 97 1017.6
20260902075010 22 348 1.6 6.4 0.00 0.00 0.00 97 1017.5
20260902074527 22 12 0.0 6.4 0.00 0.00 0.00 97 1017.5
20260902074009 22 19 1.6 8.0 0.00 0.00 0.00 97 1017.5
20260902073516 22 48 3.2 8.0 0.00 0.00 0.00 97 1017.6
20260902073025 22 17 1.6 8.0 0.00 0.00 0.00 97 1017.6
20260902072508 22 5 1.6 8.0 0.00 0.00 0.00 97 1017.5
20260902072008 22 5 0.0 6.4 0.00 0.00 0.00 97 1017.5
20260902071524 22 355 1.6 6.4 0.00 0.00 0.00 97 1017.6
20260902071009 22 5 1.6 6.4 0.00 0.00 0.00 97 1017.7
20260902070513 22 13 0.0 4.8 0.00 0.00 0.00 97 1017.7
20260902070027 22 352 0.0 4.8 0.00 0.00 0.00 97 1017.7
20260902065513 22 333 0.0 3.2 0.00 0.00 0.00 96 1017.7
20260902065008 22 333 0.0 4.8 0.00 0.00 0.00 96 1017.7
20260902064526 22 10 1.6 4.8 0.00 0.00 0.00 96 1017.7
20260902064009 22 355 1.6 4.8 0.00 0.00 0.00 96 1017.8
20260902063517 22 346 0.0 3.2 0.00 0.00 0.00 96 1017.9
20260902063023 22 329 0.0 4.8 0.00 0.00 0.00 96 1017.9
20260902062507 22 34 0.0 6.4 0.00 0.00 0.00 96 1017.8
20260902062010 22 308 0.0 6.4 0.00 0.00 0.00 96 1017.8
20260902061521 22 360 0.0 4.8 0.00 0.00 0.00 96 1017.9
20260902061010 22 30 1.6 4.8 0.00 0.00 0.00 96 1017.9
20260902060510 22 327 0.0 3.2 0.00 0.00 0.00 96 1017.9
20260902060025 22 22 0.0 4.8 0.00 0.00 0.00 96 1018.0
20260902055508 22 346 1.6 4.8 0.00 0.00 0.00 96 1017.9
20260902055012 22 346 1.6 4.8 0.00 0.00 0.00 96 1017.9
20260902054537 22 346 0.0 3.2 0.00 0.00 0.00 96 1017.9
20260902054015 22 346 0.0 3.2 0.00 0.00 0.00 96 1017.9
20260902053509 22 346 1.6 4.8 0.00 0.00 0.00 95 1017.9
20260902053031 22 346 1.6 4.8 0.00 0.00 0.00 95 1017.9
20260902052515 22 346 1.6 3.2 0.00 0.00 0.00 95 1017.8
20260902052012 22 346 0.0 3.2 0.00 0.00 0.00 95 1017.8
20260902051527 22 346 0.0 4.8 0.00 0.00 0.00 95 1017.7
20260902051008 22 346 0.0 4.8 0.00 0.00 0.00 95 1017.7
20260902050506 22 346 0.0 4.8 0.00 0.00 0.00 95 1017.6
20260902050033 22 340 0.0 4.8 0.00 0.00 0.00 95 1017.5
20260902045512 22 350 0.0 4.8 0.00 0.00 0.00 95 1017.7
20260902045012 22 350 0.0 4.8 0.00 0.00 0.00 95 1017.7
20260902044530 22 350 1.6 3.2 0.00 0.00 0.00 95 1017.5
20260902044010 22 350 0.0 3.2 0.00 0.00 0.00 95 1017.7
20260902043515 22 350 0.0 4.8 0.00 0.00 0.00 95 1017.6
20260902043029 22 33 0.0 4.8 0.00 0.00 0.00 94 1017.7
20260902042508 22 33 0.0 3.2 0.00 0.00 0.00 94 1017.7
20260902042014 23 33 0.0 4.8 0.00 0.00 0.00 94 1017.7
20260902041529 23 33 0.0 6.4 0.00 0.00 0.00 94 1017.7
20260902041016 23 32 1.6 6.4 0.00 0.00 0.00 94 1017.7
20260902040512 23 41 1.6 6.4 0.00 0.00 0.00 94 1017.5
20260902040029 23 66 1.6 4.8 0.00 0.00 0.00 94 1017.6
20260902035516 23 45 1.6 6.4 0.00 0.00 0.00 94 1017.8
20260902035010 23 19 3.2 6.4 0.00 0.00 0.00 94 1017.8
20260902034526 23 41 3.2 6.4 0.00 0.00 0.00 94 1017.7
20260902034013 23 19 1.6 4.8 0.00 0.00 0.00 94 1017.7
20260902033514 23 19 3.2 4.8 0.00 0.00 0.00 94 1017.7
20260902033026 23 19 1.6 4.8 0.00 0.00 0.00 93 1017.7
20260902032516 23 19 0.0 3.2 0.00 0.00 0.00 93 1017.6
20260902032020 23 19 1.6 4.8 0.00 0.00 0.00 93 1017.6
20260902031532 23 19 0.0 4.8 0.00 0.00 0.00 93 1017.7
20260902031012 23 19 0.0 4.8 0.00 0.00 0.00 93 1017.6
20260902030516 23 19 1.6 4.8 0.00 0.00 0.00 93 1017.6
20260902030032 23 19 1.6 4.8 0.00 0.00 0.00 93 1017.6
20260902025512 23 19 1.6 4.8 0.00 0.00 0.00 93 1017.7
20260902025014 23 19 0.0 4.8 0.00 0.00 0.00 93 1017.6
20260902024539 23 19 0.0 3.2 0.00 0.00 0.00 92 1017.6
20260902024018 23 19 0.0 3.2 0.00 0.00 0.00 92 1017.5
20260902023513 23 19 0.0 3.2 0.00 0.00 0.00 92 1017.5
20260902023027 23 19 0.0 3.2 0.00 0.00 0.00 92 1017.4
20260902022514 23 19 0.0 3.2 0.00 0.00 0.00 92 1017.2
20260902022015 23 19 0.0 3.2 0.00 0.00 0.00 91 1017.2
20260902021543 23 19 0.0 3.2 0.00 0.00 0.00 91 1017.2
20260902021016 23 19 0.0 3.2 0.00 0.00 0.00 91 1017.2
20260902020517 23 19 0.0 3.2 0.00 0.00 0.00 91 1017.1
20260902020032 23 19 1.6 4.8 0.00 0.00 0.00 91 1017.1
20260902015518 23 19 0.0 4.8 0.00 0.00 0.00 91 1017.1
20260902015021 23 19 1.6 3.2 0.00 0.00 0.00 90 1017.1
20260902014538 24 19 0.0 3.2 0.00 0.00 0.00 90 1017.1
20260902014013 24 19 0.0 3.2 0.00 0.00 0.00 90 1017.1
20260902013519 24 19 0.0 3.2 0.00 0.00 0.00 89 1017.2
20260902013034 24 19 0.0 3.2 0.00 0.00 0.00 89 1017.2
20260902012519 24 107 0.0 0.0 0.00 0.00 0.00 89 1017.1
20260902012014 24 107 0.0 0.0 0.00 0.00 0.00 88 1017.1
20260902011527 24 106 0.0 1.6 0.00 0.00 0.00 88 1017.0
20260902011003 24 107 0.0 1.6 0.00 0.00 0.00 88 1017.1
20260902010502 25 107 0.0 1.6 0.00 0.00 0.00 87 1017.0
20260902010015 25 106 0.0 0.0 0.00 0.00 0.00 87 1017.0
20260902005504 25 106 0.0 0.0 0.00 0.00 0.00 87 1017.0
20260902005006 25 106 0.0 1.6 0.00 0.00 0.00 86 1016.9
20260902004509 25 106 0.0 1.6 0.00 0.00 0.00 86 1016.7
20260902004006 25 106 0.0 1.6 0.00 0.00 0.00 86 1016.6
20260902003508 25 106 0.0 1.6 0.00 0.00 0.00 85 1016.5
20260902003006 25 107 0.0 3.2 0.00 0.00 0.00 85 1016.4
20260902002504 25 107 0.0 3.2 0.00 0.00 0.00 84 1016.5
20260902002007 25 107 0.0 4.8 0.00 0.00 0.00 84 1016.7
20260902001525 26 107 1.6 11.3 0.00 0.00 0.00 84 1016.7
20260902001002 26 111 3.2 11.3 0.00 0.00 0.00 83 1016.5
20260902000504 26 115 1.6 8.0 0.00 0.00 0.00 83 1016.6
20260902000009 26 73 1.6 12.9 0.00 0.00 0.00 83 1016.7
20260901235504 26 78 3.2 12.9 0.00 0.00 0.00 82 1016.7
20260901235004 26 51 3.2 12.9 0.00 0.00 0.00 82 1016.8
20260901234511 26 105 6.4 12.9 0.00 0.00 0.00 82 1016.9
20260901234007 26 105 4.8 12.9 0.00 0.00 0.00 82 1017.0
20260901233504 26 77 3.2 12.9 0.00 0.00 0.00 81 1017.0
20260901233011 26 94 1.6 8.0 0.00 0.00 0.00 81 1017.1
20260901232508 26 104 3.2 8.0 0.00 0.00 0.00 81 1017.1
20260901232008 26 84 3.2 6.4 0.00 0.00 0.00 80 1017.2
20260901231505 26 97 1.6 8.0 0.00 0.00 0.00 80 1017.2
20260901231006 27 94 3.2 16.1 0.00 0.00 0.00 80 1017.3
20260901230510 27 78 3.2 16.1 0.00 0.00 0.00 79 1017.3
20260901230005 27 96 6.4 16.1 0.00 0.00 0.00 79 1017.4
20260901225504 27 107 4.8 16.1 0.00 0.00 0.00 78 1017.5
20260901225004 27 59 6.4 16.1 0.00 0.00 0.00 78 1017.5
20260901224505 27 90 4.8 17.7 0.00 0.00 0.00 78 1017.5
20260901224003 27 115 6.4 17.7 0.00 0.00 0.00 77 1017.6
20260901223504 27 64 6.4 16.1 0.00 0.00 0.00 77 1017.5
20260901223013 27 96 6.4 17.7 0.00 0.00 0.00 76 1017.6
20260901222504 28 79 9.7 17.7 0.00 0.00 0.00 75 1017.6
20260901222004 28 95 9.7 17.7 0.00 0.00 0.00 75 1017.7
20260901221515 28 107 8.0 17.7 0.00 0.00 0.00 74 1017.7
20260901221008 28 86 8.0 16.1 0.00 0.00 0.00 73 1017.7
20260901220504 28 85 6.4 17.7 0.00 0.00 0.00 73 1017.7
20260901220012 29 111 9.7 17.7 0.00 0.00 0.00 72 1017.6
20260901215510 29 46 8.0 17.7 0.00 0.00 0.00 71 1017.6
20260901215016 29 62 4.8 17.7 0.00 0.00 0.00 72 1017.6
20260901214517 30 98 8.0 20.9 0.00 0.00 0.00 71 1017.6
20260901214008 30 103 9.7 25.7 0.00 0.00 0.00 71 1017.6
20260901213505 30 101 12.9 25.7 0.00 0.00 0.00 70 1017.5
20260901213009 30 92 8.0 19.3 0.00 0.00 0.00 71 1017.7
20260901212506 30 107 11.3 19.3 0.00 0.00 0.00 70 1017.7
20260901212006 30 81 6.4 27.4 0.00 0.00 0.00 70 1017.5
20260901211512 30 90 14.5 27.4 0.00 0.00 0.00 69 1017.6
20260901211005 30 65 8.0 22.5 0.00 0.00 0.00 70 1017.7
20260901210508 30 90 11.3 20.9 0.00 0.00 0.00 71 1017.7
20260901210023 30 110 11.3 19.3 0.00 0.00 0.00 71 1017.8
20260901205512 30 134 9.7 20.9 0.00 0.00 0.00 72 1017.5
20260901205007 29 122 9.7 20.9 0.00 0.00 0.00 73 1017.6
20260901204528 28 121 8.0 20.9 0.00 0.00 0.00 76 1017.6
20260901204017 28 75 9.7 24.1 0.00 0.00 0.00 75 1017.7
20260901203517 28 85 12.9 24.1 0.00 0.00 0.00 75 1017.8
20260901203015 28 68 4.8 19.3 0.00 0.00 0.00 77 1017.8
20260901202507 28 134 8.0 20.9 0.00 0.00 0.00 76 1017.8
20260901202004 28 90 11.3 24.1 0.00 0.00 0.00 75 1017.7
20260901201510 28 99 12.9 24.1 0.00 0.00 0.00 74 1017.7
20260901201004 28 98 8.0 19.3 0.00 0.00 0.00 75 1017.6
20260901200508 28 44 8.0 20.9 0.00 0.00 0.00 75 1017.7
20260901200030 29 63 14.5 27.4 0.00 0.00 0.00 73 1017.4
20260901195508 29 117 9.7 27.4 0.00 0.00 0.00 73 1017.4
20260901195012 30 28 14.5 24.1 0.00 0.00 0.00 72 1017.4
20260901194524 30 35 11.3 24.1 0.00 0.00 0.00 74 1017.4
20260901194014 30 40 11.3 29.0 0.00 0.00 0.00 73 1017.5
20260901193506 30 91 14.5 29.0 0.00 0.00 0.00 72 1017.5
20260901193025 30 57 14.5 25.7 0.00 0.00 0.00 73 1017.5
20260901192514 30 82 14.5 25.7 0.00 0.00 0.00 72 1017.4
20260901192007 30 74 9.7 20.9 0.00 0.00 0.00 73 1017.4
20260901191530 30 119 12.9 20.9 0.00 0.00 0.00 73 1017.4
20260901191014 30 124 9.7 20.9 0.00 0.00 0.00 74 1017.4
20260901190502 29 78 8.0 22.5 0.00 0.00 0.00 73 1017.4
20260901190014 29 45 8.0 22.5 0.00 0.00 0.00 72 1017.4
20260901185504 29 78 6.4 19.3 0.00 0.00 0.00 72 1017.4
20260901185002 29 65 8.0 20.9 0.00 0.00 0.00 74 1017.3
20260901184504 29 47 9.7 20.9 0.00 0.00 0.00 74 1017.5
20260901184003 29 5 6.4 19.3 0.00 0.00 0.00 75 1017.5
20260901183502 28 48 9.7 19.3 0.00 0.00 0.00 73 1017.7
20260901183005 29 87 9.7 19.3 0.00 0.00 0.00 74 1017.6
20260901182504 28 63 9.7 20.9 0.00 0.00 0.00 76 1017.7
20260901182003 28 92 6.4 25.7 0.00 0.00 0.00 76 1017.7
20260901181506 28 59 11.3 25.7 0.00 0.00 0.00 74 1017.8
20260901181004 28 61 11.3 24.1 0.00 0.00 0.00 74 1017.8
20260901180505 28 46 6.4 17.7 0.00 0.00 0.00 76 1017.8
20260901180004 28 67 9.7 17.7 0.00 0.00 0.00 76 1017.9
20260901175503 28 23 9.7 22.5 0.00 0.00 0.00 76 1017.9
20260901175008 28 84 11.3 22.5 0.00 0.00 0.00 74 1017.8
20260901174504 29 62 9.7 27.4 0.00 0.00 0.00 74 1017.9
20260901174004 29 101 14.5 27.4 0.00 0.00 0.00 74 1017.9
20260901173505 29 47 16.1 24.1 0.00 0.00 0.00 75 1018.0
20260901173019 28 44 11.3 20.9 0.00 0.00 0.00 76 1018.1
20260901172503 28 60 11.3 22.5 0.00 0.00 0.00 74 1018.1
20260901172004 28 84 12.9 22.5 0.00 0.00 0.00 75 1018.1
20260901171504 28 114 12.9 22.5 0.00 0.00 0.00 75 1018.2
20260901171005 28 121 11.3 19.3 0.00 0.00 0.00 76 1018.1
20260901170503 28 118 8.0 22.5 0.00 0.00 0.00 75 1018.2
20260901170010 28 100 9.7 25.7 0.00 0.00 0.00 74 1018.3
20260901165502 29 30 11.3 25.7 0.00 0.00 0.00 73 1018.2
20260901165002 29 87 14.5 24.1 0.00 0.00 0.00 73 1018.3
20260901164509 29 109 14.5 29.0 0.00 0.00 0.00 73 1018.4
20260901164009 29 76 16.1 29.0 0.00 0.00 0.00 72 1018.4
20260901163509 29 49 11.3 27.4 0.00 0.00 0.00 75 1018.4
20260901163003 29 59 14.5 32.2 0.00 0.00 0.00 73 1018.5
20260901162506 29 69 17.7 32.2 0.00 0.00 0.00 72 1018.4
20260901162008 29 133 14.5 25.7 0.00 0.00 0.00 73 1018.4
20260901161524 30 115 12.9 27.4 0.00 0.00 0.00 71 1018.3
20260901161003 30 157 14.5 29.0 0.00 0.00 0.00 72 1018.2
20260901160504 30 82 12.9 29.0 0.00 0.00 0.00 70 1018.1
20260901160010 30 71 12.9 27.4 0.00 0.00 0.00 71 1018.2
20260901155503 30 115 11.3 27.4 0.00 0.00 0.00 70 1018.1
20260901155004 30 98 12.9 25.7 0.00 0.00 0.00 71 1018.0
20260901154507 30 116 11.3 24.1 0.00 0.00 0.00 71 1018.0
20260901154003 30 136 8.0 24.1 0.00 0.00 0.00 72 1017.9
20260901153506 30 44 12.9 27.4 0.00 0.00 0.00 73 1017.9
20260901153020 30 63 11.3 29.0 0.00 0.00 0.00 73 1017.8
20260901152509 30 84 14.5 29.0 0.00 0.00 0.00 71 1017.8
20260901152008 30 99 12.9 27.4 0.00 0.00 0.00 71 1017.9
20260901151511 30 91 6.4 19.3 0.00 0.00 0.00 73 1017.9
20260901151009 29 94 9.7 19.3 0.00 0.00 0.00 72 1017.7
20260901150511 29 101 8.0 37.0 0.00 0.00 0.00 72 1017.6
20260901150007 28 147 14.5 37.0 0.00 0.00 0.00 72 1017.7
20260901145503 28 113 14.5 29.0 0.00 0.00 0.00 72 1017.9
20260901145003 28 65 16.1 29.0 0.00 0.00 0.00 72 1017.8
20260901144507 28 47 14.5 25.7 0.00 0.00 0.00 73 1017.8
20260901144005 28 51 9.7 20.9 0.00 0.00 0.00 74 1017.7
20260901143503 28 84 9.7 22.5 0.00 0.00 0.00 74 1017.8
20260901143014 28 117 6.4 25.7 0.00 0.00 0.00 76 1017.8
20260901142507 28 105 8.0 25.7 0.00 0.00 0.00 76 1018.0
20260901142010 28 79 16.1 27.4 0.00 0.00 0.00 75 1018.0
20260901141518 27 72 14.5 29.0 0.00 0.00 0.00 75 1017.9
20260901141012 28 145 14.5 29.0 0.00 0.00 0.00 74 1017.8
20260901140505 28 92 8.0 22.5 0.00 0.00 0.00 76 1017.6
20260901140016 28 79 8.0 17.7 0.00 0.00 0.00 76 1017.6
20260901135509 27 139 8.0 22.5 0.00 0.00 0.00 76 1017.5
20260901135014 27 113 4.8 22.5 0.00 0.00 0.00 77 1017.6
20260901134513 27 80 12.9 22.5 0.00 0.00 0.00 78 1017.6
20260901134007 27 111 6.4 14.5 0.00 0.00 0.00 80 1017.7
20260901133513 27 123 4.8 12.9 0.00 0.00 0.00 79 1017.7
20260901133013 26 105 4.8 19.3 0.00 0.00 0.00 81 1017.7
20260901132507 26 46 9.7 20.9 0.00 0.00 0.00 81 1017.8
20260901132004 26 119 9.7 20.9 0.00 0.00 0.00 82 1017.9
20260901131516 25 88 6.4 17.7 0.00 0.00 0.00 84 1017.8
20260901131004 25 110 9.7 17.7 0.00 0.00 0.00 84 1017.8
20260901130510 25 92 8.0 14.5 0.00 0.00 0.00 84 1017.9
20260901130025 25 94 8.0 17.7 0.00 0.00 0.00 84 1017.9
20260901125516 25 65 6.4 17.7 0.00 0.00 0.00 84 1017.9
20260901125007 25 96 8.0 16.1 0.00 0.00 0.00 85 1018.0
20260901124528 25 92 8.0 16.1 0.00 0.00 0.00 86 1018.0
20260901124014 24 76 8.0 16.1 0.00 0.00 0.00 86 1018.0
20260901123520 24 88 6.4 17.7 0.00 0.00 0.00 86 1018.0
20260901123021 24 84 9.7 17.7 0.00 0.00 0.00 86 1018.0
20260901122515 24 94 8.0 19.3 0.00 0.00 0.00 87 1018.0
20260901122015 23 62 11.3 19.3 0.00 0.00 0.00 87 1017.9
20260901121511 23 102 4.8 14.5 0.00 0.00 0.00 87 1018.0
20260901121006 23 92 8.0 14.5 0.00 0.00 0.00 87 1017.9
20260901120507 23 67 4.8 12.9 0.00 0.00 0.00 88 1018.0
20260901120015 23 93 8.0 12.9 0.00 0.00 0.00 88 1018.0
20260901115507 23 78 6.4 12.9 0.00 0.00 0.00 89 1018.0
20260901115010 23 102 6.4 12.9 0.00 0.00 0.00 89 1017.9
20260901114532 23 93 6.4 11.3 0.00 0.00 0.00 89 1017.9
20260901114013 23 136 3.2 16.1 0.00 0.00 0.00 89 1017.9
20260901113508 23 85 8.0 16.1 0.00 0.00 0.00 89 1017.9
20260901113027 23 63 4.8 9.7 0.00 0.00 0.00 89 1017.9
20260901112514 23 87 3.2 11.3 0.00 0.00 0.00 89 1017.8
20260901112009 23 82 4.8 11.3 0.00 0.00 0.00 89 1017.8
20260901111526 23 80 3.2 8.0 0.00 0.00 0.00 89 1017.7
20260901111014 23 76 3.2 8.0 0.00 0.00 0.00 88 1017.6
20260901110520 23 57 3.2 11.3 0.00 0.00 0.00 88 1017.6
20260901110022 23 59 3.2 11.3 0.00 0.00 0.00 88 1017.5
20260901105508 23 76 4.8 11.3 0.00 0.00 0.00 88 1017.5
20260901105012 23 48 4.8 16.1 0.00 0.00 0.00 89 1017.4
20260901104530 23 78 6.4 16.1 0.00 0.00 0.00 89 1017.4
20260901104012 23 53 6.4 16.1 0.00 0.00 0.00 89 1017.4
20260901103511 23 54 8.0 14.5 0.00 0.00 0.00 90 1017.4
20260901103028 22 86 4.8 14.5 0.00 0.00 0.00 90 1017.5